[[{"header":{"parameterUnit":"m.s-1","parameterCategory":1,"la1":30.2991,"la2":30.254,"lo1":-89.0895,"lo2":-89.0444,"dy":0.0017,"dx":0.0017,"nx":28,"ny":28,"refTime":"2023-08-29T21:00:00:Z","depth":0,"parameterNumber":2,"parameterNumberName":"U-component_of_WINDS"},"data":[0,0,0,0,0,0,0,0,0,0,0,0,0,0,0,0,0,0,0,0,0,0,0,0,0,0,0,0,0,0,0,0,0,0,0,0,0,0,0,0,0,0,0,0,0,0,0,0,0,0,0,0,0,0,0,0,0,0,-2.9104,-2.9104,0,-2.9096,-2.9096,-2.9096,-2.9033,-2.9032,-2.903,-2.9029,-2.9025,-2.9026,-2.9027,0,0,0,0,0,0,0,0,0,0,0,0,0,-2.9071,-2.9072,-2.9104,-2.9104,-2.9104,-2.9096,-2.9096,-2.9096,-2.9034,-2.9032,-2.903,-2.9028,-2.9024,-2.9026,-2.9027,0,0,0,0,0,0,0,0,0,0,0,0,0,-2.9077,-2.9072,-2.9104,-2.9072,-2.9069,-2.9096,-2.9096,-2.9095,-2.9034,-2.9032,-2.9029,-2.9027,-2.9024,-2.9026,-2.9028,-2.9086,0,0,-2.9034,-2.9035,0,0,0,0,0,0,0,0,-2.9076,-2.9078,-2.9077,-2.9074,-2.9071,-2.9063,-2.9082,-2.9093,-2.9035,-2.9047,-2.9029,-2.9026,-2.904,-2.904,-2.9044,-2.9086,-2.9086,-2.9034,-2.9035,-2.9036,-2.9036,0,0,0,0,0,0,0,-2.9076,-2.9078,-2.9101,-2.9077,-2.9073,-2.9059,-2.9058,-2.9084,-2.9057,-2.9046,-2.9041,-2.9041,-2.9038,-2.9042,-2.9043,-2.9086,-2.9034,-2.9036,-2.9037,-2.9038,-2.9179,-2.9182,0,0,0,0,0,0,-2.908,-2.9078,-2.9101,-2.91,-2.9068,-2.9062,-2.906,-2.9068,-2.9056,-2.9052,-2.9043,-2.9038,-2.904,-2.9041,-2.9043,-2.9113,-2.9036,-2.9038,-2.9039,-2.9177,-2.918,-2.9183,0,0,0,0,0,0,-2.9079,-2.9082,-2.9101,-2.9088,-2.9089,-2.9065,-2.9075,-2.9069,-2.9073,-2.9054,-2.9049,-2.9052,-2.9038,-2.904,-2.9076,-2.9112,-2.9039,-2.904,-2.9174,-2.9178,-2.9181,-2.9252,0,0,0,0,0,0,-2.9078,-2.9082,-2.9103,-2.9089,-2.909,-2.9133,-2.9077,-2.9071,-2.9076,-2.907,-2.9061,-2.9058,-2.9036,-2.9074,-2.9078,-2.9113,-2.9042,-2.917,-2.9175,-2.918,-2.9247,-2.9258,-2.9268,0,0,0,0,0,-2.9077,-2.9123,-2.9104,-2.9107,-2.9115,-2.9135,-2.9136,-2.911,-2.9079,-2.9101,-2.9089,-2.9058,-2.9107,-2.9078,-2.9083,-2.9119,-2.9168,-2.9174,-2.918,-2.9242,-2.9256,-2.9268,0,0,0,0,0,0,-2.9143,-2.9121,-2.9099,-2.9142,-2.9141,-2.9125,-2.9151,-2.9125,-2.9133,-2.9127,-2.9095,-2.9094,-2.9136,-2.913,-2.9098,-2.9177,-2.9132,-2.9139,-2.9178,-2.9191,-2.9202,-2.9203,-2.9044,0,0,0,0,0,-2.9162,-2.9179,-2.9159,-2.9199,-2.9199,-2.9176,-2.9183,-2.9163,-2.9161,-2.9161,-2.9151,-2.9152,-2.9168,-2.9179,-2.9192,-2.9246,-2.9245,-2.9273,-2.9284,-2.9292,-2.9299,-2.933,-2.9344,-2.9202,-2.9202,-2.9201,0,0,-2.9202,-2.9192,-2.9205,-2.9212,-2.9209,-2.9229,-2.9176,-2.9198,-2.9214,-2.9165,-2.9198,-2.9192,-2.9191,-2.9237,-2.9257,-2.9234,-2.9338,-2.93,-2.9307,-2.9309,-2.9338,-2.9351,-2.9363,-2.9206,-2.9205,-2.9204,0,0,-2.9286,-2.9279,-2.9313,-2.9311,-2.9307,-2.9291,-2.9299,-2.9287,-2.9281,-2.9314,-2.9279,-2.9298,-2.9325,-2.9326,-2.9331,-2.9418,-2.9391,-2.9424,-2.948,-2.951,-2.9521,-2.9531,-2.9565,-2.9577,-2.943,-2.9431,-2.9431,0,-2.9337,-2.9364,-2.9333,-2.9359,-2.9365,-2.932,-2.9355,-2.9356,-2.9357,-2.9363,-2.9337,-2.9372,-2.9368,-2.9415,-2.9437,-2.9441,-2.9452,-2.9425,-2.9522,-2.9532,-2.954,-2.9572,-2.9585,-2.9435,-2.9434,-2.9434,-2.9433,0,-2.9428,-2.9448,-2.9476,-2.9477,-2.9486,-2.9516,-2.9492,-2.9505,-2.9484,-2.9472,-2.9509,-2.9503,-2.9515,-2.9525,-2.9505,-2.957,-2.9557,-2.9527,-2.9482,-2.9559,-2.9588,-2.96,-2.9441,-2.9439,-2.9438,-2.9437,0,0,-2.9552,-2.9538,-2.9549,-2.955,-2.9543,-2.9559,-2.9589,-2.96,-2.9613,-2.9616,-2.9642,-2.9667,-2.9641,-2.9646,-2.9626,-2.9653,-2.9726,-2.962,-2.962,-2.9642,-2.9802,-2.9826,-2.984,-2.9708,-2.971,-2.9712,-2.9803,0,-2.9635,-2.9683,-2.9657,-2.971,-2.973,-2.9689,-2.9716,-2.9716,-2.9706,-2.9723,-2.9712,-2.9732,-2.9693,-2.9697,-2.9721,-2.9712,-2.9758,-2.9705,-2.9735,-2.9736,-2.9738,-2.9855,-2.9879,-2.9965,-2.9814,-2.9816,-2.9817,0,-2.9736,-2.9744,-2.9798,-2.979,-2.9798,-2.9821,-2.9832,-2.9847,-2.9848,-2.9839,-2.9846,-2.9821,-2.9853,-2.9808,-2.9853,-2.9818,-2.9829,-2.9826,-2.9829,-2.9832,-2.9782,-2.9864,-2.9991,-3.0005,-2.9835,-2.9833,-2.9832,0,-2.9825,-2.9848,-2.9884,-2.9886,-2.9877,-2.9896,-2.9893,-2.9891,-2.9901,-2.991,-2.9917,-2.993,-2.9938,-2.9951,-2.9932,-2.99,-2.9981,-2.9933,-2.9977,-2.9978,-2.9996,-2.9996,-3.013,-3.0001,-3.0,-3.0,-3.0,0,-2.992,-2.9956,-2.9924,-2.9946,-2.9986,-2.9957,-2.9998,-2.9992,-2.9991,-3.0014,-2.998,-3.0002,-2.9974,-2.9995,-2.998,-3.0022,-3.0025,-3.0021,-3.0017,-3.0025,-3.0026,-3.0033,-3.0027,-3.0004,-3.0003,-3.0002,-3.0002,0,-3.0025,-3.0005,-3.0042,-3.0031,-3.0029,-3.0059,-3.0051,-3.0073,-3.0061,-3.009,-3.0096,-3.0078,-3.0101,-3.0083,-3.0105,-3.0096,-3.0151,-3.0138,-3.0151,-3.0148,-3.0194,-3.0191,-3.0339,-3.0358,-3.0214,-3.0215,-3.0216,0,-3.0088,-3.0114,-3.0106,-3.0119,-3.0118,-3.0138,-3.0147,-3.0121,-3.0133,-3.0138,-3.016,-3.018,-3.0194,-3.0234,-3.0225,-3.0243,-3.0231,-3.0282,-3.0233,-3.0242,-3.0235,-3.0234,-3.0238,-3.0292,-3.0294,-3.0295,-3.0296,0,-3.0203,-3.0192,-3.0206,-3.0218,-3.0231,-3.0239,-3.0245,-3.0258,-3.0231,-3.0247,-3.0269,-3.0281,-3.0304,-3.0326,-3.0341,-3.0341,-3.0316,-3.0311,-3.0323,-3.0332,-3.034,-3.0339,-3.018,-3.0308,-3.0307,-3.0306,-3.0305,-3.0305,-3.029,-3.0313,-3.0311,-3.033,-3.0331,-3.0338,-3.0359,-3.035,-3.0368,-3.0384,-3.0368,-3.0397,-3.04,-3.0418,-3.0421,-3.0445,-3.0424,-3.044,-3.0445,-3.045,-3.0458,-3.0335,-3.0448,-3.0447,-3.0447,-3.0446,-3.0446,0,-3.0405,-3.0402,-3.0419,-3.0429,-3.0444,-3.0417,-3.0423,-3.0438,-3.0463,-3.0467,-3.0483,-3.0511,-3.0532,-3.0525,-3.0545,-3.0566,-3.0555,-3.0572,-3.0572,-3.0573,-3.0473,-3.0463,-3.0581,-3.0581,-3.0581,-3.0581,-3.0581,-3.0581,-3.0467,-3.0505,-3.0494,-3.0534,-3.0532,-3.0558,-3.0564,-3.0572,-3.0575,-3.0608,-3.0625,-3.062,-3.0621,-3.0641,-3.0661,-3.0659,-3.0669,-3.0691,-3.0685,-3.0593,-3.0579,-3.0567,-3.0556,-3.0693,-3.0693,-3.0783,-3.0783,-3.0784]},{"header":{"parameterUnit":"m.s-1","parameterCategory":1,"la1":30.2991,"la2":30.254,"lo1":-89.0895,"lo2":-89.0444,"dy":0.0017,"dx":0.0017,"nx":28,"ny":28,"refTime":"2023-08-29T21:00:00:Z","depth":0,"parameterNumber":3,"parameterNumberName":"V-component_of_WINDS"},"data":[0,0,0,0,0,0,0,0,0,0,0,0,0,0,0,0,0,0,0,0,0,0,0,0,0,0,0,0,0,0,0,0,0,0,0,0,0,0,0,0,0,0,0,0,0,0,0,0,0,0,0,0,0,0,0,0,0,0,-0.4805,-0.4805,0,-0.476,-0.476,-0.4759,-0.4712,-0.4712,-0.4711,-0.471,-0.4666,-0.4665,-0.4664,0,0,0,0,0,0,0,0,0,0,0,0,0,-0.4851,-0.485,-0.4805,-0.4805,-0.4804,-0.476,-0.476,-0.4759,-0.4712,-0.4712,-0.4711,-0.471,-0.4666,-0.4665,-0.4664,0,0,0,0,0,0,0,0,0,0,0,0,0,-0.4821,-0.485,-0.4805,-0.4775,-0.4772,-0.4761,-0.476,-0.4759,-0.4713,-0.4712,-0.4711,-0.471,-0.4666,-0.4665,-0.4664,-0.4679,0,0,-0.4662,-0.4661,0,0,0,0,0,0,0,0,-0.4823,-0.482,-0.478,-0.4777,-0.4774,-0.4741,-0.4759,-0.4732,-0.4713,-0.4735,-0.471,-0.4709,-0.4691,-0.4688,-0.4682,-0.4677,-0.4675,-0.4662,-0.4661,-0.4661,-0.466,0,0,0,0,0,0,0,-0.4825,-0.4821,-0.4787,-0.478,-0.4776,-0.4764,-0.4759,-0.4754,-0.472,-0.4733,-0.473,-0.4725,-0.469,-0.4683,-0.4681,-0.4674,-0.4662,-0.4661,-0.466,-0.466,-0.4679,-0.468,0,0,0,0,0,0,-0.4831,-0.4823,-0.4789,-0.4786,-0.4796,-0.4764,-0.4758,-0.4752,-0.4719,-0.4713,-0.4726,-0.4723,-0.4685,-0.4682,-0.4679,-0.4695,-0.4661,-0.466,-0.4659,-0.4678,-0.4679,-0.468,0,0,0,0,0,0,-0.4833,-0.4829,-0.4791,-0.4804,-0.4798,-0.4765,-0.4758,-0.4752,-0.4746,-0.4714,-0.4708,-0.4726,-0.4684,-0.468,-0.4679,-0.4693,-0.4659,-0.4659,-0.4677,-0.4678,-0.468,-0.4727,0,0,0,0,0,0,-0.4834,-0.483,-0.4835,-0.4804,-0.4797,-0.4792,-0.4759,-0.4752,-0.4744,-0.474,-0.4712,-0.4707,-0.4683,-0.4681,-0.4679,-0.4691,-0.4658,-0.4676,-0.4678,-0.4679,-0.4725,-0.473,-0.4735,0,0,0,0,0,-0.4836,-0.485,-0.4835,-0.4831,-0.4803,-0.4793,-0.4789,-0.4761,-0.4746,-0.4751,-0.473,-0.4707,-0.4691,-0.4681,-0.4678,-0.4691,-0.4675,-0.4677,-0.4679,-0.4722,-0.4729,-0.4735,0,0,0,0,0,0,-0.4883,-0.4845,-0.4829,-0.4833,-0.4816,-0.4785,-0.4791,-0.477,-0.4758,-0.4754,-0.4721,-0.4715,-0.4718,-0.4704,-0.4693,-0.4704,-0.468,-0.4682,-0.4713,-0.472,-0.4725,-0.473,-0.4657,0,0,0,0,0,-0.4894,-0.4888,-0.4855,-0.4862,-0.4855,-0.4824,-0.4819,-0.4799,-0.478,-0.4773,-0.4753,-0.4736,-0.4727,-0.4722,-0.4712,-0.4721,-0.4715,-0.4728,-0.4734,-0.4738,-0.4741,-0.4746,-0.4752,-0.4688,-0.4688,-0.4688,0,0,-0.4917,-0.4895,-0.4894,-0.4871,-0.4856,-0.4852,-0.4819,-0.4815,-0.4812,-0.4773,-0.4771,-0.4755,-0.4734,-0.4739,-0.474,-0.4727,-0.4757,-0.4741,-0.4745,-0.4746,-0.4749,-0.4755,-0.4761,-0.469,-0.4689,-0.4689,0,0,-0.4956,-0.4939,-0.4943,-0.4929,-0.4906,-0.4885,-0.4886,-0.4858,-0.4846,-0.4843,-0.4814,-0.4809,-0.4794,-0.4781,-0.4773,-0.4806,-0.4786,-0.4804,-0.4833,-0.4839,-0.4844,-0.4848,-0.4862,-0.4868,-0.4806,-0.4806,-0.4806,0,-0.4988,-0.498,-0.4949,-0.4947,-0.4939,-0.4902,-0.4907,-0.4894,-0.487,-0.4865,-0.4851,-0.4832,-0.4815,-0.4817,-0.4825,-0.4818,-0.4819,-0.4808,-0.4845,-0.485,-0.4853,-0.4866,-0.4872,-0.4809,-0.4808,-0.4808,-0.4808,0,-0.5021,-0.5016,-0.5022,-0.5,-0.4991,-0.4993,-0.4962,-0.4958,-0.4938,-0.4919,-0.4917,-0.4895,-0.4881,-0.4879,-0.486,-0.4878,-0.4871,-0.4851,-0.4828,-0.4862,-0.4875,-0.4879,-0.4812,-0.4811,-0.4811,-0.481,0,0,-0.5092,-0.5051,-0.5054,-0.5044,-0.5015,-0.5011,-0.5011,-0.4997,-0.4994,-0.4978,-0.4978,-0.4966,-0.4947,-0.4938,-0.4916,-0.492,-0.4951,-0.49,-0.4899,-0.4913,-0.4972,-0.499,-0.4996,-0.4936,-0.4936,-0.4937,-0.4975,0,-0.5129,-0.5127,-0.5099,-0.5105,-0.5101,-0.5066,-0.5066,-0.5049,-0.503,-0.5024,-0.5003,-0.4996,-0.4971,-0.4965,-0.4967,-0.4947,-0.4963,-0.4943,-0.4937,-0.4938,-0.4947,-0.5002,-0.502,-0.5057,-0.4979,-0.498,-0.498,0,-0.5173,-0.5159,-0.5166,-0.5138,-0.5135,-0.5136,-0.5121,-0.5114,-0.5094,-0.508,-0.5069,-0.5045,-0.5043,-0.5018,-0.5016,-0.5003,-0.4999,-0.4988,-0.4989,-0.499,-0.4964,-0.5007,-0.5068,-0.5075,-0.4987,-0.4986,-0.4986,0,-0.5227,-0.521,-0.5212,-0.5204,-0.5171,-0.5173,-0.5159,-0.5137,-0.5131,-0.5117,-0.5112,-0.5098,-0.5092,-0.5081,-0.5054,-0.5038,-0.5056,-0.5028,-0.5046,-0.5047,-0.5054,-0.5055,-0.5119,-0.5046,-0.5046,-0.5046,-0.5046,0,-0.5274,-0.528,-0.5237,-0.5239,-0.5244,-0.5211,-0.5217,-0.52,-0.5181,-0.5179,-0.5146,-0.5145,-0.5107,-0.5101,-0.5079,-0.5082,-0.5079,-0.5069,-0.5063,-0.5074,-0.5075,-0.5073,-0.5071,-0.5047,-0.5047,-0.5047,-0.5046,0,-0.5338,-0.5308,-0.5309,-0.5277,-0.5269,-0.5275,-0.5248,-0.5248,-0.5227,-0.5225,-0.5222,-0.5189,-0.5181,-0.5152,-0.5136,-0.5121,-0.5132,-0.5119,-0.514,-0.5137,-0.5158,-0.5157,-0.5224,-0.5232,-0.5152,-0.5153,-0.5153,0,-0.5371,-0.5375,-0.5343,-0.534,-0.5327,-0.5321,-0.5314,-0.528,-0.5275,-0.5251,-0.5255,-0.5244,-0.5234,-0.5222,-0.5197,-0.5185,-0.5174,-0.5198,-0.5173,-0.5183,-0.5178,-0.518,-0.5181,-0.5205,-0.5206,-0.5207,-0.5208,0,-0.5434,-0.542,-0.5411,-0.5397,-0.539,-0.5377,-0.5363,-0.5361,-0.5324,-0.5319,-0.531,-0.5302,-0.5286,-0.5276,-0.526,-0.5245,-0.5222,-0.5216,-0.522,-0.5232,-0.5245,-0.5241,-0.5159,-0.5215,-0.5215,-0.5214,-0.5214,-0.5213,-0.5486,-0.5489,-0.5467,-0.5458,-0.5444,-0.5431,-0.543,-0.5408,-0.5401,-0.5386,-0.5365,-0.5359,-0.5338,-0.5314,-0.5301,-0.5296,-0.5283,-0.5288,-0.529,-0.5293,-0.5299,-0.5243,-0.5293,-0.5292,-0.5292,-0.5292,-0.5292,0,-0.5551,-0.5534,-0.5527,-0.5508,-0.5501,-0.5477,-0.5459,-0.5456,-0.5451,-0.5433,-0.5424,-0.5414,-0.5404,-0.5377,-0.5365,-0.5366,-0.5355,-0.5364,-0.5366,-0.5363,-0.531,-0.5309,-0.5374,-0.5374,-0.5374,-0.5374,-0.5374,-0.5374,-0.5584,-0.5588,-0.557,-0.5566,-0.5549,-0.5544,-0.5536,-0.5524,-0.551,-0.5501,-0.5493,-0.5475,-0.5454,-0.5439,-0.5429,-0.5421,-0.542,-0.5433,-0.5423,-0.5374,-0.5367,-0.5359,-0.5359,-0.5432,-0.5433,-0.5476,-0.5477,-0.5477]}]]